Location: Zihuatanejo
(17.6330°N, 101.5500°W)
Time: 11:36:35
(UTC-05:00)

Daily predictions for brighter satellites

Satellite Brightness Start Highest point End
(mag) Time Altitude Azimuth Time Altitude Azimuth Time Altitude Azimuth
H-2A R/B 4.0 20:37:16 10° SE 20:40:12 23° ENE 20:43:09 10° NNE
H-II Stage 2 4.2 20:39:48 10° WSW 20:43:03 28° S 20:53:12 10° SE
NOSS 3-2 (C) 4.2 20:35:14 10° NNW 20:43:09 66° ENE 20:51:22 10° SE
Cosmos 1536 4.3 20:40:04 10° NNW 20:43:48 39° W 20:47:32 10° SSW
Star 37D S/N 019 3.6 20:42:25 10° WSW 20:43:51 76° NNW 20:45:34 10° ENE
Cosmos 923 Rocket 4.1 20:39:14 10° SSW 20:44:35 86° E 20:49:53 10° NNE
HJ-1C 4.3 20:42:31 10° SE 20:45:33 31° ENE 20:48:35 10° NNE
NOAA 12 4.2 20:40:21 10° S 20:45:34 83° WSW 20:50:50 10° NNW
CENTAUR R/B 4.4 20:39:51 10° N 20:46:06 23° ENE 20:52:26 10° ESE
Cosmos 724 4.3 20:41:45 10° NNW 20:47:38 71° ENE 20:53:22 10° SSE
GPS 2-18 Rocket1 3.1 20:44:08 10° WNW 20:47:49 72° N 20:51:32 10° E
Cosmos 1975 4.0 20:45:00 10° NNE 20:48:22 25° E 20:51:44 10° SE
Cosmos 1745 Rocket 4.4 20:42:11 10° N 20:48:26 71° W 20:54:36 10° S
Cosmos 1386 Rocket 4.5 20:47:34 10° N 20:53:38 86° W 20:59:38 10° S
Cosmos 2315 Rocket 4.1 20:47:44 10° S 20:53:59 85° W 21:00:19 10° N
Meteor 2-4 Rocket 4.4 20:55:34 10° SSE 21:00:25 32° E 21:05:24 10° NNE
NOSS 3-2 (A) 4.4 20:53:51 10° NNW 21:01:48 72° WSW 21:10:02 10° SSE
Cosmos 1455 Rocket 3.4 21:03:34 10° NNE 21:07:41 43° E 21:11:19 13° SSE
Meteor 1-29 4.4 21:06:26 10° NE 21:08:50 18° E 21:08:51 18° E
Resurs 01 Rocket 2.1 21:05:39 12° SE 21:09:26 43° ENE 21:13:37 10° N
SJ-6B 3.3 21:06:00 10° S 21:10:06 68° W 21:14:11 10° NNW
Hubble Space Telescope 1.4 21:07:57 10° W 21:12:01 55° NNW 21:16:04 10° ENE
Cosmos 1943 Rocket 2.1 21:07:46 10° NNW 21:13:20 87° ENE 21:18:50 10° SSE
Cosmos 1437 4.0 21:10:35 10° SSW 21:13:38 42° W 21:16:42 10° N
Cosmos 2112 Rocket 4.3 21:11:46 10° SSW 21:16:58 70° WNW 21:22:09 10° N
Cosmos 2369 Rocket 3.6 21:12:27 10° NW 21:17:38 38° WSW 21:22:50 10° S
Nadezhda 1 Rocket 4.4 21:13:15 10° SSE 21:19:09 43° E 21:25:06 10° NNE
Cosmos 192 4.4 21:14:29 10° SSW 21:19:23 80° WNW 21:24:17 10° N
Cosmos 405 Rocket 2.8 21:16:56 10° S 21:20:37 73° W 21:24:22 10° N
Spot 2 Rocket 3.6 21:18:36 16° SSE 21:22:34 57° ENE 21:27:29 10° N
SL-27 R/B 3.6 21:20:42 10° SSW 21:24:11 46° WNW 21:27:42 10° N
Iridium 4 Rocket 4.0 21:20:58 10° N 21:26:27 71° W 21:32:16 10° S
Cosmos 1441 Rocket 3.1 21:23:50 15° S 21:26:47 57° E 21:30:26 10° NNE
Cosmos 1500 3.4 21:23:07 10° N 21:26:50 67° W 21:30:22 11° S
Meteor 1-12 Rocket 4.3 21:22:20 10° N 21:28:17 87° W 21:34:10 10° S
NOSS 8 (E) 4.5 21:24:22 10° SSW 21:28:17 89° WNW 21:31:45 10° NNE
GPS 2-04 Rocket1 2.1 21:26:30 10° SW 21:29:53 73° SE 21:31:32 28° ENE
Aurora 2 Rocket 4.3 21:24:35 10° WNW 21:30:55 57° NNE 21:37:49 17° E
Delta 198 4.4 21:30:35 10° WNW 21:36:53 87° NNE 21:40:37 29° ESE
Delta 142 3.7 21:34:22 10° SW 21:38:13 42° SSE 21:38:36 41° SE
COSMOS 2455 3.0 21:35:17 10° NNW 21:41:15 70° WSW 21:45:29 20° S
Meteor 1-23 Rocket 4.1 21:37:53 12° S 21:43:04 67° E 21:48:36 10° NNE
CZ-3A R/B 4.0 21:32:32 10° SW 21:43:35 38° WNW 21:47:15 10° N
Envisat 3.3 21:43:38 38° ESE 21:44:56 46° ENE 21:49:46 10° N
Helios 1B rocket 2.6 21:41:17 10° N 21:45:25 75° WNW 21:49:32 10° SSW
H-10 deb 3.9 21:48:44 10° SW 21:48:51 10° SSW 21:48:51 10° SSW
Cosmos 2082 Rocket 2.4 21:50:34 40° SE 21:51:33 44° ESE 21:56:54 10° NNE
ASTRO E2 4.2 21:48:24 10° NW 21:51:49 26° NNE 21:52:37 24° NE
Okean 1-7 Rocket 3.5 21:51:57 30° S 21:54:07 87° W 21:58:35 10° N
Okean 2 3.6 21:56:16 52° NE 21:56:16 52° NE 21:59:40 10° NNE
Meteor 2-13 Rocket 4.3 21:50:06 10° N 21:56:08 68° E 21:58:26 39° SSE
Cosmos 1025 Rocket 3.0 22:00:34 48° SSW 22:01:40 78° W 22:05:56 10° N
Cosmos 1743 3.3 22:00:49 10° NNW 22:04:37 55° W 22:05:13 49° SW
GPS 2-14 Rocket1 3.1 22:01:06 10° WNW 22:04:41 52° N 22:04:41 52° N
DNEPR-1 R/B 4.3 22:00:49 10° N 22:04:58 45° ENE 22:04:58 45° ENE
USA 186 3.3 22:06:02 33° W 22:06:04 33° W 22:08:57 10° NNW
SJ-11-01 4.3 22:19:38 79° NW 22:19:38 79° NW 22:24:03 10° NNW
ERS-1 Rocket 4.1 22:21:26 31° NE 22:21:26 31° NE 22:24:32 10° N
Cosmos 1666 3.9 22:18:10 10° NNW 22:20:57 40° NW 22:20:57 40° NW
FUSE 4.3 22:18:24 10° WSW 22:22:39 55° SW 22:22:39 55° SW
Cosmos 1833 Rocket 2.5 22:23:55 77° SSW 22:24:22 89° WNW 22:29:59 10° NNE
Meteor 2-9 Rocket 4.3 22:28:20 10° NNW 22:33:55 71° W 22:34:15 68° WSW
CENTAUR R/B 3.5 22:28:55 10° NW 22:37:07 61° WSW 22:39:48 43° SSW
Gbstr 26 Del rocket 4.4 22:30:21 10° NW 22:38:26 80° SW 22:39:38 67° S
ASTEX 1 4.0 22:40:10 53° NW 22:40:10 53° NW 22:44:15 10° NNW
Milstar 3 Cent rocket 4.5 22:30:59 10° SW 22:41:59 69° SSE 23:06:44 10° ENE
Cosmos 2181 Rocket 4.0 22:43:10 83° W 22:43:13 83° W 22:49:33 10° N
Hubble Space Telescope 3.3 22:50:23 10° WNW 22:52:27 19° NW 22:52:27 19° NW
H-2A R/B 4.4 23:18:38 14° N 23:18:38 14° N 23:19:25 10° N
Aurora 2 Rocket 4.4 23:17:48 10° WNW 23:24:27 68° W 23:24:27 68° W
